Temp
25 23 22 22 23 23 24 24 24 24 24 23 23 23 22 22 22 25 26 27 27 25 25 25 25 25 26 26 26 26 26 26 26 27 26 25 24 24 24 24 23 23 22 21 20 20 20 20 20 20 20 20 19 19 19 18 18 18 18 18 18 18 19 18 18 18 18 19 19 19 18 18 18 17 17 17 17 17 17 16 16 16 15 15 16 15
24 22 22 23 24 24 24 24 24 24 24 23 23 22 22 22 22 25 26 26 26 25 24 25 25 25 26 25 25 25 25 25 26 26 26 26 25 24 25 25 24 24 23 21 20 19 20 20 19 19 19 19 19 19 19 18 18 18 18 18 18 18 19 18 18 18 18 19 19 19 18 18 18 17 17 17 16 16 16 16 16 16 15 15 15 15
23 22 23 24 24 24 24 25 24 24 23 23 23 22 21 22 23 24 24 24 25 24 23 24 23 23 25 25 25 25 25 25 25 26 26 26 25 24 25 25 25 25 23 21 20 19 19 19 19 19 18 19 19 19 19 19 18 18 18 18 18 18 19 18 18 19 19 19 19 19 18 18 18 17 17 17 16 16 16 16 16 16 16 15 15 15
21 22 24 24 24 25 24 24 24 23 23 23 23 22 21 22 23 22 23 24 24 24 23 23 22 22 24 24 24 25 25 25 25 25 26 25 25 25 25 25 25 25 23 21 21 20 19 19 19 18 18 18 19 19 19 19 19 18 18 18 18 18 18 18 19 19 19 19 18 18 18 18 18 17 16 16 16 16 16 16 16 16 16 15 15 15
22 24 25 24 24 25 24 24 24 23 22 22 23 22 21 22 22 22 23 24 24 23 23 23 21 21 23 23 23 24 24 24 24 25 25 24 25 26 26 25 25 25 24 21 21 20 19 18 19 18 18 18 18 18 19 19 19 18 18 18 18 18 18 18 18 19 19 18 18 18 18 17 17 17 16 16 16 16 16 16 16 15 15 15 14 15
23 24 25 24 24 24 24 23 24 23 21 22 23 23 23 23 23 23 23 23 22 21 23 23 20 20 22 23 23 23 23 24 24 24 24 24 25 25 25 26 25 25 25 23 21 20 19 18 19 19 18 18 18 19 19 19 19 19 18 18 18 18 18 18 18 18 18 18 18 18 17 17 17 17 17 17 16 16 16 16 15 15 15 15 14 14
24 24 25 24 24 24 24 23 24 23 21 20 22 24 24 24 23 23 22 22 20 20 22 22 20 20 21 22 23 23 23 24 24 24 24 24 24 25 25 25 25 25 25 24 23 21 19 18 18 18 18 18 18 19 19 19 19 19 19 18 18 18 18 18 18 17 18 18 18 17 17 17 17 17 17 17 16 16 16 16 15 15 15 14 14 14
23 23 24 24 24 23 23 22 24 24 21 21 23 24 24 24 23 22 22 21 21 21 22 22 21 20 20 22 23 24 23 24 24 24 24 24 24 24 24 24 25 25 25 25 24 21 20 19 18 18 18 19 19 19 19 19 19 19 19 19 18 18 18 18 18 17 18 17 17 17 17 17 17 17 17 17 16 16 16 15 15 15 14 14 14 14
24 23 23 24 23 23 23 23 24 24 22 22 24 24 24 24 23 23 22 21 21 21 20 21 21 20 20 21 23 23 23 23 24 24 24 25 24 24 24 24 24 24 24 25 24 21 19 19 19 19 19 19 19 19 19 19 19 19 19 19 18 18 18 18 18 18 17 17 17 17 17 17 17 17 17 17 16 15 15 15 15 14 14 15 14 14
24 24 24 24 23 23 23 24 24 24 23 23 24 24 24 24 23 23 22 21 21 20 19 20 21 20 20 21 22 22 22 23 24 24 24 25 25 24 25 24 24 24 24 24 23 20 19 19 20 20 19 19 19 19 19 19 19 19 19 19 18 18 18 18 17 18 17 17 17 17 17 17 17 17 17 17 16 16 15 15 15 15 15 14 14 14
25 25 25 24 24 24 24 24 24 24 24 24 24 23 23 23 23 23 22 21 20 19 20 20 21 20 20 21 22 22 23 24 24 24 24 24 25 25 26 26 24 23 23 23 23 21 19 20 20 20 19 19 19 19 19 19 19 19 19 19 18 18 18 17 17 17 17 17 17 17 17 17 17 17 17 16 16 16 15 15 15 15 15 14 14 14
24 24 24 25 25 25 24 24 24 25 25 24 24 22 21 21 21 21 21 21 19 19 20 21 21 21 19 20 23 24 25 26 25 25 24 24 25 25 26 26 25 24 23 23 23 22 20 19 19 19 19 19 19 19 19 19 19 19 19 19 18 18 18 18 17 17 17 17 17 17 17 17 17 17 16 16 16 15 15 15 15 15 15 15 15 14
23 23 24 25 25 25 24 23 23 24 24 24 23 22 20 19 19 19 19 19 19 19 20 21 21 20 20 21 23 25 26 26 26 26 26 25 25 25 25 26 25 24 23 23 23 22 21 20 18 18 19 19 19 19 19 19 19 19 19 19 18 18 18 17 17 17 17 17 17 17 17 17 17 16 16 16 16 16 15 15 15 15 15 15 15 14
21 22 24 24 24 25 24 22 21 22 23 23 22 21 20 19 18 18 19 19 19 19 21 21 21 20 20 22 24 25 26 26 26 27 27 27 27 26 25 25 25 25 24 23 23 22 21 20 19 18 19 19 19 19 19 19 19 19 19 19 18 18 18 17 17 17 17 17 17 17 17 17 17 16 16 16 16 15 15 15 15 15 15 15 15 14
20 21 22 23 23 24 24 23 23 23 23 22 23 22 20 20 19 18 19 19 19 19 20 21 21 20 20 22 24 25 25 26 26 26 27 27 27 26 25 25 25 25 25 24 23 22 21 20 19 19 19 19 19 19 19 19 19 19 19 19 18 18 17 17 17 17 17 17 17 17 17 16 16 16 16 16 15 15 15 15 15 14 14 14 14 14
20 20 23 25 24 24 24 24 24 24 22 22 23 22 20 21 21 20 20 20 19 19 19 20 20 20 21 23 24 25 25 26 26 26 26 26 26 26 25 25 25 25 25 24 23 22 21 20 19 19 19 19 19 19 19 19 19 19 19 19 18 18 18 17 17 17 17 16 16 16 16 16 16 16 16 15 15 15 15 15 15 14 14 14 14 14
20 20 23 24 24 24 24 25 25 24 22 22 22 21 22 23 22 20 20 20 20 18 19 20 20 20 21 22 24 25 25 25 25 25 25 25 26 26 26 26 26 26 26 25 24 23 21 20 19 20 19 19 19 19 19 19 19 19 19 19 18 18 18 18 17 17 17 16 16 16 16 16 16 15 15 15 15 15 15 15 14 14 14 14 14 13
20 20 22 23 22 24 25 25 25 25 24 22 21 22 23 23 22 21 19 19 19 17 18 19 20 20 20 21 23 24 24 24 24 24 25 25 25 25 25 26 26 26 26 26 25 23 21 20 19 19 19 19 19 19 19 19 19 19 19 19 18 18 18 17 17 17 16 16 16 16 16 16 15 15 15 15 15 15 15 14 14 14 14 14 13 13
21 19 20 22 22 23 25 24 23 24 25 23 22 23 23 21 21 21 19 19 18 17 18 19 19 20 20 20 22 23 23 23 23 23 23 24 24 23 24 24 25 26 25 26 26 23 21 20 19 19 19 19 19 19 19 19 19 19 19 19 18 18 18 18 17 17 16 16 16 16 16 15 15 15 15 15 15 15 14 14 14 14 14 13 13 13
21 19 19 21 22 22 22 22 21 22 23 24 23 23 23 21 20 20 19 19 18 17 18 18 18 19 20 21 22 22 22 22 21 21 22 22 22 22 22 23 24 23 22 24 25 24 21 20 19 19 19 19 19 19 19 19 19 19 19 19 18 18 18 17 17 17 16 16 16 16 15 15 15 15 15 15 14 14 14 14 14 14 13 13 13 12
21 19 18 19 21 20 20 21 21 21 21 22 21 21 21 21 20 20 19 19 18 17 17 17 17 18 20 21 21 21 22 22 21 21 21 21 21 20 21 22 22 22 21 22 23 23 22 20 19 20 19 19 19 19 19 19 19 19 18 18 18 18 18 17 17 17 16 16 16 15 15 15 15 15 14 14 14 14 14 14 13 13 13 13 12 12
19 18 17 18 18 18 19 20 21 21 20 20 20 20 21 20 20 19 18 18 18 17 17 17 16 17 19 21 21 21 21 22 22 21 21 21 21 20 20 20 21 21 22 22 21 22 22 20 19 20 20 20 19 19 19 19 19 18 18 18 18 18 18 17 17 17 16 16 16 15 15 15 14 14 14 14 14 14 13 13 13 13 12 12 12 12
18 18 17 17 17 18 19 20 21 21 21 21 20 20 21 20 20 18 17 18 18 17 17 17 16 17 20 21 21 21 21 21 21 21 20 20 20 20 20 20 20 21 22 22 22 22 21 19 19 20 20 20 20 19 19 19 18 18 18 18 18 18 18 17 17 16 16 16 15 15 15 15 14 14 14 14 14 13 13 13 13 12 12 12 12 12
18 17 17 16 17 18 19 20 21 21 21 20 20 20 20 20 20 19 18 18 17 17 17 16 15 17 20 21 21 21 21 21 20 20 19 19 19 19 19 20 20 20 21 22 22 22 20 18 19 20 20 20 20 19 19 19 18 18 18 18 18 18 18 17 17 16 16 16 15 15 15 14 14 14 13 13 13 13 13 13 13 12 12 12 12 11
18 17 16 15 15 16 17 18 19 19 19 18 19 19 19 19 19 19 19 18 17 17 18 16 16 17 19 20 21 21 21 20 19 19 19 19 19 19 19 19 19 20 20 21 21 22 21 20 20 20 20 20 20 19 19 18 18 18 18 18 18 18 17 17 17 16 16 15 15 15 14 14 14 14 13 13 13 13 13 12 12 12 12 12 12 11
17 17 16 15 14 13 14 16 17 17 17 17 18 18 18 18 18 18 18 17 16 17 17 17 17 17 18 19 20 20 20 19 19 19 19 19 19 18 18 18 19 19 20 20 20 21 21 22 21 19 19 20 19 19 18 18 18 18 17 18 18 18 17 17 16 16 15 15 15 14 14 14 14 13 13 13 13 13 12 12 12 12 12 12 11 11
17 16 16 15 14 14 14 15 17 16 16 16 16 17 17 18 18 18 17 16 16 17 16 16 17 17 17 18 18 19 19 19 19 19 19 19 19 19 18 19 19 19 19 20 20 20 20 21 21 20 20 20 19 19 19 18 18 18 18 18 18 18 18 17 16 16 15 15 15 14 14 14 13 13 13 13 13 12 12 12 12 12 12 11 11 11
16 15 16 15 15 15 15 16 17 17 16 16 16 17 17 17 17 17 16 16 16 16 15 16 17 17 17 18 17 17 18 18 19 19 19 19 19 19 19 19 19 19 19 19 20 20 20 20 20 20 19 19 19 19 19 18 18 18 18 18 18 18 17 17 16 16 15 15 15 14 14 14 13 13 13 13 13 12 12 12 12 12 11 11 11 11
16 15 16 15 15 15 16 16 17 17 16 17 16 16 17 17 17 16 16 16 16 15 15 16 16 16 17 17 16 17 17 18 18 18 18 19 19 18 18 18 18 18 18 18 19 19 19 19 19 18 17 19 19 19 19 18 18 18 17 17 18 17 17 16 16 16 15 15 14 14 14 14 13 13 13 13 12 12 12 12 12 11 11 11 11 11
16 15 16 16 15 15 16 16 17 16 16 16 16 16 16 16 16 16 16 16 16 15 16 16 15 15 15 16 16 17 17 17 18 18 18 18 17 17 16 16 17 17 17 17 18 18 18 18 18 16 16 17 17 17 18 18 18 18 17 17 17 17 17 17 16 15 15 14 14 14 14 13 13 13 13 13 12 12 12 12 12 11 11 11 11 11
16 15 16 16 15 14 15 16 16 16 16 16 16 16 16 16 16 16 16 16 16 15 16 15 15 15 15 16 17 17 17 17 17 17 17 17 16 16 16 16 16 16 16 17 17 17 17 17 18 16 15 16 16 16 17 18 17 17 17 16 16 15 15 16 15 15 15 14 14 14 14 13 13 13 13 13 12 12 12 12 11 11 11 11 11 10
16 15 15 15 14 13 15 16 16 16 16 15 14 15 15 15 15 15 16 16 16 15 15 15 14 14 15 16 16 17 17 17 16 16 16 16 16 16 16 16 16 16 16 17 17 17 17 17 18 17 16 16 16 16 17 18 17 16 16 15 15 14 13 14 15 15 15 14 14 14 14 13 13 13 13 12 12 12 12 11 11 11 11 11 10 10
15 14 14 14 13 13 14 16 15 14 13 13 14 15 15 15 15 15 15 15 16 16 15 14 14 15 15 16 15 15 15 15 15 15 15 15 15 15 15 16 16 16 16 16 16 16 16 16 16 16 16 16 17 17 17 17 17 16 15 14 14 14 13 13 14 14 14 14 14 14 14 13 13 13 12 12 12 12 12 11 11 11 11 10 10 10
14 13 13 13 12 12 13 15 14 12 11 12 15 16 16 16 15 15 15 15 15 15 15 14 15 14 14 14 14 14 14 14 14 14 14 14 15 15 15 15 15 15 15 15 14 14 14 14 14 15 15 15 16 17 17 17 17 16 15 15 14 14 14 13 14 14 14 14 14 14 14 13 13 13 12 12 12 12 12 11 11 11 11 10 10 10
13 13 13 13 13 12 12 13 12 11 11 14 16 17 16 16 15 15 15 15 14 14 14 14 14 13 13 13 13 13 13 14 14 13 14 15 15 15 14 14 14 14 14 14 14 13 13 13 13 14 15 15 15 16 16 16 16 16 15 15 14 14 14 14 14 14 14 14 14 14 14 13 13 13 13 12 12 12 12 11 11 11 10 10 10 9
13 13 13 13 12 12 12 11 10 11 13 15 15 16 16 16 14 14 14 14 13 13 13 13 13 12 12 12 12 13 13 13 13 13 14 15 15 14 13 13 13 13 13 13 13 12 12 12 13 14 14 15 15 15 15 15 16 15 15 15 14 14 13 13 13 13 13 14 14 14 14 13 13 13 13 12 12 12 12 11 11 11 10 10 9 8
13 13 13 12 12 12 11 11 11 12 13 13 14 14 14 14 13 13 12 13 13 13 13 12 12 12 12 12 12 12 12 12 12 12 14 14 14 13 13 13 13 13 13 12 12 12 12 12 13 13 14 15 15 15 15 15 15 15 14 14 14 13 13 13 12 12 13 13 14 14 13 13 13 13 13 12 12 12 11 11 11 10 9 9 8 8
14 13 13 12 12 12 11 11 11 11 11 12 13 13 13 13 13 13 12 12 12 12 12 12 12 11 12 12 11 11 11 11 11 11 13 14 13 13 13 13 13 13 12 12 12 12 12 12 12 12 13 13 14 15 15 15 14 14 14 14 13 13 13 13 12 12 13 13 14 13 13 13 13 13 12 12 12 11 11 10 10 9 9 9 8 8
14 14 13 12 12 12 11 11 10 10 11 12 12 12 12 13 13 13 11 11 11 12 12 12 12 11 12 11 11 11 10 10 10 11 12 12 12 12 13 13 12 12 12 12 12 11 11 11 11 11 12 12 13 14 15 15 14 14 14 14 14 13 13 13 12 13 13 14 13 13 13 13 13 12 12 11 11 11 10 10 9 9 9 8 8 7
14 14 13 11 11 11 11 11 11 11 11 11 11 11 12 13 13 12 10 10 11 12 12 13 12 12 12 12 11 11 10 10 10 10 11 11 11 12 12 12 11 11 11 11 11 11 11 11 11 11 11 11 12 12 13 14 14 13 13 13 14 13 13 13 13 13 14 13 13 13 13 13 12 12 12 11 11 10 10 10 9 9 9 8 8 7
14 13 12 11 11 11 10 9 10 11 11 10 10 11 12 12 12 10 9 11 12 12 12 13 12 12 12 12 11 10 10 10 10 11 11 11 11 11 11 11 11 10 10 10 10 11 11 10 10 10 11 11 11 12 12 13 13 12 12 12 12 12 12 13 13 13 13 12 13 13 12 12 12 11 11 11 11 10 10 9 9 9 8 8 7 7
12 12 12 12 11 11 11 10 10 11 10 9 10 11 11 11 10 10 11 12 12 12 12 12 12 12 12 11 11 10 10 10 11 11 11 11 11 11 11 10 10 10 10 10 10 10 10 9 9 9 10 11 11 11 11 12 11 11 11 11 10 10 12 13 13 13 12 12 12 12 12 12 11 11 11 11 10 10 9 9 9 9 8 8 7 7
12 12 11 12 12 11 11 11 10 10 10 10 11 11 11 11 11 11 12 12 12 12 12 11 11 11 11 11 10 10 10 10 10 10 10 10 10 10 10 10 10 9 9 9 9 9 9 9 8 9 10 11 11 11 11 11 10 10 11 11 10 11 12 12 12 12 13 12 12 12 12 12 11 11 11 10 10 10 10 9 9 8 8 7 7 7
12 11 10 11 11 10 9 10 10 10 11 11 11 11 11 12 12 12 12 12 12 12 11 11 11 11 11 10 10 10 10 10 10 10 10 10 10 10 9 9 9 8 8 8 8 9 9 9 9 9 10 10 10 10 11 10 10 9 10 10 11 12 12 12 12 13 12 12 12 12 12 12 11 11 10 10 10 10 10 10 9 8 8 7 7 6
11 11 10 10 10 10 9 10 10 11 11 12 12 12 12 12 12 12 12 11 12 11 11 11 11 11 11 10 10 9 9 9 9 10 10 9 9 9 9 9 8 8 8 8 8 9 9 9 9 9 9 10 10 10 10 10 9 9 10 10 11 12 13 13 13 13 12 12 12 12 12 11 11 11 11 10 10 10 10 10 9 8 8 7 7 6
11 10 9 10 10 10 10 10 11 11 11 12 12 12 11 11 11 11 11 10 11 11 10 10 10 10 10 10 9 9 9 9 9 9 9 9 8 8 8 8 8 8 8 8 8 9 9 8 8 9 9 9 9 9 10 10 10 10 11 11 12 13 13 13 12 12 12 12 12 12 11 11 11 11 10 10 10 10 10 9 9 8 8 7 6 5
10 10 9 9 9 9 9 10 11 11 10 11 11 11 10 10 10 10 10 9 10 10 10 10 10 10 10 10 9 8 8 9 9 8 8 8 7 8 8 8 8 8 8 8 8 8 8 8 8 9 9 9 9 10 10 10 11 11 12 12 13 13 12 12 12 12 12 12 12 12 11 11 11 11 10 10 10 10 9 9 9 8 8 7 6 5
9 9 8 8 9 8 9 10 11 10 10 10 10 10 10 10 10 10 10 10 10 10 10 9 9 9 9 9 9 8 9 9 9 7 7 7 7 7 8 8 8 8 8 8 8 8 8 8 9 9 9 9 9 10 11 11 11 12 12 13 13 13 12 12 12 12 12 12 11 11 11 11 11 11 10 10 10 9 9 9 9 8 8 7 6 5
9 8 8 8 8 8 9 10 10 9 9 10 10 9 10 10 10 10 10 10 10 9 9 8 8 8 9 9 9 9 9 8 8 7 7 7 7 7 7 7 8 8 8 8 8 8 8 8 9 10 9 9 10 11 11 12 12 12 13 13 13 12 12 12 12 12 12 11 11 11 11 11 11 11 10 10 9 9 9 9 8 8 7 7 6 5
8 8 8 8 7 7 8 9 9 9 8 9 9 10 10 11 11 10 10 10 9 9 8 8 8 8 8 9 9 9 9 8 7 7 6 6 6 7 7 7 8 8 8 8 8 8 9 9 10 10 9 9 11 12 12 12 12 12 13 13 13 12 12 12 12 12 11 11 11 11 11 11 11 10 10 9 9 9 9 8 8 7 7 7 6 5
8 8 9 8 7 8 9 9 10 9 9 9 10 10 10 11 11 10 10 9 9 8 8 8 8 8 8 9 9 9 8 8 7 6 6 6 6 6 7 7 8 8 8 8 8 8 9 10 10 10 9 10 11 12 12 12 12 12 12 12 13 13 12 12 12 11 11 11 11 11 11 11 10 10 9 9 9 9 9 8 7 7 7 6 6 5
Height
758 768 774 774 772 768 765 763 765 765 765 768 770 771 772 773 770 758 751 747 745 756 762 759 763 761 759 759 758 756 754 755 756 756 757 759 761 762 763 765 767 769 769 769 772 774 777 779 782 785 788 790 793 796 797 800 803 805 806 808 809 809 810 811 812 812 813 814 814 815 816 816 816 817 818 818 819 819 820 820 820 821 822 822 822 822
759 773 775 767 764 763 762 760 761 763 765 767 770 772 772 773 771 760 754 752 748 757 763 759 761 762 758 758 756 756 758 758 757 756 757 757 759 760 760 762 763 765 766 769 772 774 776 779 781 783 786 788 791 793 795 797 801 804 805 807 808 809 810 811 812 812 813 814 814 815 816 816 817 817 818 818 819 819 820 820 820 821 822 822 822 822
768 773 767 759 758 759 759 758 760 764 766 769 770 773 777 772 768 764 760 758 755 761 768 766 768 767 760 757 755 754 757 758 755 754 754 754 756 758 758 759 760 762 765 768 772 774 776 778 780 782 784 786 788 791 793 795 798 801 804 806 807 808 809 811 812 812 812 813 814 815 816 816 817 817 818 818 818 819 820 820 821 821 822 822 822 821
777 769 758 755 756 757 760 759 761 765 767 770 771 775 779 772 771 775 769 763 760 764 769 770 772 771 764 760 757 754 754 755 754 752 751 751 753 754 755 757 758 760 764 767 770 772 774 777 779 781 783 785 787 790 792 794 796 798 801 804 806 808 809 810 811 811 812 813 814 815 816 816 817 818 818 818 819 820 820 820 821 821 822 822 821 821
771 760 750 753 755 757 762 762 762 768 772 771 770 774 777 772 772 775 770 765 764 766 766 770 779 777 767 765 761 754 752 752 752 752 752 751 750 751 752 755 757 758 761 765 768 770 773 775 777 779 781 783 785 788 791 793 794 796 798 801 804 806 808 809 810 810 811 812 814 815 816 817 817 818 818 819 819 820 820 820 821 821 821 821 821 821
761 751 747 753 756 756 762 765 763 768 775 775 770 767 769 768 768 769 768 769 776 780 769 771 791 788 768 766 764 755 753 752 750 751 752 751 750 751 752 753 755 756 758 761 764 767 770 772 775 778 780 782 784 786 788 791 792 794 797 799 802 805 806 808 809 810 811 812 813 814 815 816 816 817 818 818 819 819 820 820 820 821 821 821 821 821
754 748 747 752 756 757 761 765 762 763 776 782 770 760 762 764 766 768 769 774 785 787 771 769 791 792 774 765 760 755 754 752 749 750 750 751 751 750 751 751 752 754 756 758 760 764 768 771 774 777 778 780 782 784 786 789 791 793 796 798 801 803 805 807 808 809 810 811 812 813 814 815 815 816 817 818 818 819 819 820 820 820 821 821 821 821
753 752 752 753 756 761 765 767 760 759 775 780 764 757 760 763 767 769 769 775 779 778 773 770 779 789 783 767 755 753 755 753 750 749 748 748 750 749 749 750 750 751 753 754 758 762 766 769 771 773 775 777 779 782 785 788 790 792 795 797 799 801 803 805 806 808 809 810 811 812 813 814 815 815 816 817 818 818 819 819 820 820 820 821 821 821
751 755 756 756 760 764 763 761 756 756 769 769 757 756 758 760 765 766 769 775 773 778 787 779 774 790 789 767 753 753 756 756 751 747 745 744 746 747 748 749 748 748 749 751 753 757 761 765 768 769 772 775 778 780 783 786 788 791 794 796 798 800 801 803 805 806 808 809 810 811 812 813 814 815 815 816 817 818 818 819 819 819 820 820 821 821
749 750 750 753 760 762 757 753 751 756 763 759 754 756 757 758 762 765 770 774 776 787 795 784 777 791 791 770 760 760 758 755 749 744 743 741 742 743 744 746 746 746 748 748 750 753 756 760 764 767 770 773 776 779 781 784 787 790 793 795 797 798 800 801 803 805 807 808 809 810 811 812 813 814 815 815 816 817 817 818 818 819 819 820 820 821
746 742 743 748 753 753 751 750 750 752 755 754 755 759 762 764 764 767 769 772 786 797 793 782 775 785 791 775 761 759 752 746 743 741 741 740 739 740 739 741 743 745 747 748 749 752 755 758 762 766 770 773 776 778 780 782 785 788 791 793 796 797 798 800 802 804 805 807 808 809 810 811 811 812 813 814 815 816 817 817 818 818 818 819 819 820
747 747 747 744 744 746 749 752 750 748 748 752 758 764 773 777 774 778 778 780 799 804 787 776 770 779 793 778 756 749 742 737 738 738 739 740 739 737 736 737 739 741 744 746 749 751 754 759 763 766 770 772 775 777 778 780 783 786 789 792 794 796 797 798 800 802 804 806 807 807 809 809 810 811 812 813 814 815 815 816 817 817 818 818 819 819
754 752 747 743 741 742 751 758 756 752 750 755 761 769 785 794 794 797 796 794 802 797 779 771 772 779 785 770 752 745 738 734 734 733 735 737 738 737 736 735 735 738 741 744 747 750 753 757 761 765 768 770 772 774 775 777 780 783 787 789 792 794 795 797 798 801 803 804 805 806 807 808 809 810 810 811 812 813 814 815 816 816 817 817 818 818
763 755 746 747 746 741 749 760 766 762 757 760 764 773 789 801 808 811 803 797 798 790 775 767 774 782 776 759 747 742 737 733 731 730 730 730 732 734 734 734 735 736 739 742 745 748 750 753 757 760 763 765 767 769 771 773 776 780 784 787 790 792 794 795 797 799 801 802 804 805 806 807 808 808 809 810 811 812 813 814 814 815 816 816 817 817
774 772 755 750 749 745 746 752 758 758 758 759 757 764 780 787 797 804 798 796 796 790 780 773 778 783 775 758 743 738 735 731 731 730 729 728 728 729 731 732 734 734 736 739 742 745 747 749 752 755 757 759 762 764 767 770 773 776 780 783 786 789 791 793 795 796 798 800 802 803 805 806 806 807 808 809 810 811 812 812 813 814 814 815 816 816
772 773 751 742 742 742 746 744 743 751 760 758 751 761 774 771 775 785 785 785 789 793 788 782 779 773 764 752 739 736 736 731 732 731 730 731 729 728 731 732 734 735 735 737 739 742 744 745 748 750 753 755 758 761 764 767 769 772 775 779 782 785 788 790 792 794 796 798 800 801 803 804 805 806 807 808 809 809 810 811 812 812 813 814 814 815
773 770 750 743 743 739 741 740 737 748 760 761 760 765 762 753 759 776 783 778 784 796 791 781 779 770 762 756 742 739 740 735 735 734 733 734 732 732 733 731 733 734 735 736 738 740 743 744 746 747 750 753 756 759 762 764 767 769 771 775 779 782 785 787 789 791 793 795 798 799 800 802 803 804 805 806 807 808 809 810 810 811 811 812 813 813
770 773 756 749 752 742 734 736 736 738 747 759 766 760 749 749 756 769 785 787 792 802 792 779 782 778 775 770 750 742 746 743 740 738 737 735 734 736 735 731 731 731 733 735 737 740 743 745 746 747 749 751 753 756 759 762 765 767 769 772 776 779 781 784 786 788 791 793 795 797 798 799 800 802 803 804 805 806 807 808 808 809 810 810 811 812
763 776 766 752 755 748 735 741 747 740 738 748 754 749 752 767 770 769 782 791 798 804 794 782 781 777 776 771 757 752 753 751 748 745 743 739 738 741 739 735 734 733 733 733 734 738 742 744 747 747 749 751 753 756 758 761 764 766 768 770 774 777 779 782 784 786 789 791 793 794 795 797 798 800 801 802 804 804 805 806 806 807 808 809 810 810
760 776 777 758 753 754 747 752 761 755 744 742 746 748 751 763 770 772 778 783 790 798 794 788 785 776 767 760 757 758 756 754 754 752 749 746 744 745 743 740 739 740 740 738 736 737 739 742 745 746 748 750 752 754 756 759 761 764 767 769 772 775 778 780 782 784 787 788 790 792 793 795 796 798 799 800 802 802 803 804 805 806 807 807 808 809
761 773 782 770 760 765 765 760 760 761 757 755 759 761 758 759 764 770 776 777 784 796 799 798 794 779 762 754 756 759 755 753 754 753 752 750 748 749 748 746 745 744 745 744 743 741 739 741 744 745 747 748 749 752 754 756 759 761 765 767 770 773 776 778 780 781 784 785 787 789 791 793 794 796 797 798 800 800 801 802 803 804 805 806 806 807
771 775 782 780 775 776 773 760 753 757 760 763 767 766 763 762 766 777 785 779 780 792 795 798 798 780 760 754 755 757 756 752 750 750 751 752 751 752 752 752 750 748 747 747 746 745 743 743 744 745 747 749 750 751 753 755 757 759 762 764 767 770 772 774 776 778 780 782 785 786 788 790 792 793 795 796 798 799 800 801 802 803 804 804 805 805
772 776 782 783 779 775 768 758 754 755 754 757 762 761 760 762 767 781 790 782 781 787 786 792 797 776 753 750 753 754 753 751 749 750 752 754 754 754 754 753 752 750 749 748 748 747 746 746 747 747 748 749 750 750 751 753 754 756 758 760 762 765 767 770 772 775 777 780 782 783 785 788 790 791 793 794 796 797 798 799 800 801 802 802 803 803
770 776 783 785 779 771 763 757 754 753 754 759 762 760 761 763 764 771 775 775 781 785 783 794 799 775 753 749 750 751 751 750 752 753 754 756 755 754 754 753 753 752 751 750 749 747 746 747 749 749 749 749 750 750 750 750 751 752 754 756 758 761 763 767 770 773 775 777 779 781 784 786 787 789 791 793 794 795 797 798 799 800 800 801 801 801
774 778 784 791 791 785 778 771 765 762 764 768 767 764 763 764 765 767 767 771 781 781 779 790 793 774 756 750 749 751 752 753 756 756 756 757 756 756 755 755 755 754 753 752 751 748 747 747 748 749 751 751 751 751 749 748 749 749 751 753 755 758 761 763 767 770 773 775 777 779 781 783 785 787 789 791 792 794 795 797 798 798 799 799 799 800
775 779 783 792 799 799 795 786 778 776 775 772 769 767 766 765 767 770 773 779 786 780 776 783 783 769 758 755 755 754 754 756 757 756 756 757 757 757 756 755 755 754 754 753 751 750 749 747 746 746 748 750 751 751 750 749 749 749 750 751 753 756 758 761 764 767 769 772 774 776 779 781 783 785 787 789 791 793 794 795 796 797 797 797 798 798
775 779 781 786 791 793 792 784 777 778 779 777 774 770 767 766 766 769 777 783 783 779 779 778 774 769 764 759 760 759 758 759 759 758 758 757 757 757 756 755 754 753 753 752 751 751 750 748 747 745 744 747 749 749 748 748 748 748 749 750 752 754 755 758 760 763 766 769 771 774 776 779 781 783 786 788 790 791 792 793 794 795 795 796 796 796
776 781 779 781 782 781 781 779 775 777 778 777 774 769 767 767 768 772 778 778 776 782 784 774 768 771 766 758 760 763 762 762 761 760 760 759 759 759 758 757 756 754 753 752 750 750 749 750 749 746 744 744 745 745 746 746 745 745 745 746 748 750 753 755 758 761 764 766 769 772 774 777 779 782 784 787 788 790 791 792 793 793 794 794 794 794
776 779 775 777 779 776 775 774 773 774 774 772 771 768 766 768 770 773 774 772 773 780 781 771 770 774 766 757 760 763 762 762 762 761 760 759 759 759 760 761 760 758 756 753 752 750 750 751 751 749 746 743 742 742 743 746 746 745 746 746 746 747 749 753 756 758 761 764 766 769 773 776 778 781 783 785 787 789 790 790 791 792 792 792 792 793
773 776 772 773 775 773 772 772 771 771 771 769 766 765 766 768 769 770 771 770 771 774 772 769 771 771 766 761 759 759 760 761 760 760 759 758 759 760 761 761 760 759 757 755 753 752 751 751 750 749 748 746 745 743 741 742 743 744 745 747 748 748 747 749 753 755 758 761 764 768 771 775 777 780 782 784 786 787 788 789 790 790 790 790 791 791
772 775 771 770 775 775 772 771 769 769 770 768 765 765 768 768 767 768 769 768 769 770 768 769 771 767 762 760 758 755 756 757 758 759 759 759 760 760 760 760 759 758 756 754 753 751 750 749 748 747 746 746 748 747 745 743 743 742 743 745 747 750 751 750 751 753 755 759 763 767 770 773 776 779 781 783 785 786 787 788 788 788 789 789 790 790
772 775 772 773 780 779 772 770 769 768 769 769 768 769 769 768 768 768 766 765 767 768 767 770 773 767 759 757 757 755 754 756 759 760 761 761 761 760 760 759 758 757 755 753 752 750 749 747 745 745 745 745 746 747 747 745 744 743 743 743 745 750 756 757 755 754 756 758 762 765 769 772 775 778 780 782 784 785 786 787 787 787 788 788 788 789
775 779 779 780 783 780 774 771 771 774 779 776 769 765 765 764 765 765 764 763 762 764 767 770 769 764 758 757 759 759 759 760 761 761 762 762 761 761 760 759 757 756 755 754 753 752 751 749 746 745 744 744 744 744 744 743 742 741 742 743 744 746 752 758 759 758 758 760 762 765 768 771 774 777 779 781 783 784 785 785 786 786 787 787 787 788
777 780 783 782 784 784 778 773 776 785 787 775 760 756 758 759 761 763 763 762 761 762 765 766 764 763 762 762 763 764 763 762 761 761 761 760 760 760 759 758 758 757 755 755 754 753 751 749 747 745 744 743 742 742 742 741 739 738 739 742 744 744 746 752 758 760 761 762 763 765 767 771 774 777 779 780 782 783 783 784 784 785 785 786 786 786
779 780 781 779 782 784 780 781 792 793 778 763 755 754 755 756 759 761 761 761 763 764 764 764 764 765 765 764 764 764 763 761 760 760 759 758 758 758 759 759 758 757 755 754 753 752 751 749 747 745 742 740 739 738 739 738 736 735 735 737 741 743 744 747 752 758 762 763 764 765 767 771 774 777 778 779 780 781 782 783 783 783 784 785 785 785
777 779 779 777 779 782 782 789 797 784 762 756 759 756 754 757 761 763 763 763 764 765 764 765 766 766 766 766 765 765 763 761 758 758 757 757 756 758 759 759 757 756 754 753 752 751 750 748 746 743 739 737 735 734 734 734 733 731 730 732 735 739 743 746 748 754 761 763 763 764 767 770 774 776 778 779 779 780 781 782 782 782 783 784 784 784
770 774 775 777 777 779 783 787 785 775 764 761 761 759 759 761 764 767 769 768 766 765 766 767 768 768 767 767 766 766 764 761 759 757 755 755 756 757 756 755 754 753 751 750 749 748 747 745 743 740 737 733 731 730 729 729 729 727 726 727 730 734 739 743 746 753 759 761 761 763 766 770 773 775 777 778 778 779 780 780 781 781 782 783 783 782
762 765 770 775 773 771 779 783 782 782 776 766 763 764 762 762 763 766 771 771 769 768 767 767 769 770 768 768 768 767 766 766 764 760 755 755 755 755 754 752 751 749 748 747 747 745 744 743 739 737 734 730 727 726 725 726 727 727 725 724 725 729 734 738 743 750 756 758 759 762 765 769 772 774 776 777 777 778 779 779 780 780 780 781 781 781
756 758 763 771 771 768 774 780 782 782 773 763 764 766 763 762 761 763 772 776 771 769 768 767 768 769 768 768 768 768 770 773 770 762 757 756 756 755 754 751 749 748 747 746 746 744 742 739 737 734 730 726 723 721 721 722 724 726 727 725 724 726 730 736 742 748 751 754 757 761 765 769 771 773 775 776 776 777 777 778 778 779 779 779 780 780
753 757 764 772 774 771 773 777 776 772 767 765 768 768 765 763 761 769 782 781 770 767 766 764 766 767 765 766 768 769 772 774 769 762 758 757 756 754 752 750 748 747 746 744 744 742 739 737 735 731 728 725 720 717 718 718 720 724 728 726 725 726 730 736 741 745 748 752 757 762 766 768 770 771 773 775 775 776 776 777 777 778 778 778 778 778
755 756 761 770 775 774 779 785 779 769 769 774 773 769 766 765 768 778 784 775 766 765 764 762 764 765 764 766 768 768 768 767 764 760 758 757 755 752 750 748 746 745 744 742 741 739 737 735 733 730 728 726 720 716 716 716 716 721 726 725 726 729 733 736 739 743 748 754 758 762 765 767 768 770 772 774 775 775 775 775 776 776 776 776 776 775
763 761 760 764 767 766 770 777 774 769 773 777 773 769 769 772 777 778 772 765 765 765 764 763 764 764 764 765 766 766 765 763 761 759 757 756 754 751 748 746 744 742 741 740 739 737 735 733 731 729 728 726 722 717 716 716 715 719 725 729 732 735 735 736 739 744 749 754 758 762 764 766 767 769 772 773 774 774 774 774 774 774 774 774 773 772
767 767 766 764 763 764 765 768 771 774 775 772 770 771 772 773 773 768 763 763 764 763 763 764 763 763 764 764 763 763 762 760 759 757 755 754 752 750 748 745 743 741 739 738 737 736 734 732 730 729 727 726 723 719 717 718 719 722 728 734 737 737 736 737 740 745 750 754 758 761 763 765 766 769 771 772 772 773 772 772 772 772 772 772 771 770
768 770 775 771 769 775 778 774 772 773 771 767 768 770 769 767 764 762 762 763 761 760 762 762 761 761 761 761 761 761 759 758 757 755 754 752 751 749 747 744 741 740 738 737 736 735 733 731 730 729 727 727 726 723 721 723 726 727 730 734 736 736 736 738 742 746 751 754 757 760 762 764 766 768 770 771 771 771 771 771 771 771 771 770 769 768
771 774 780 777 773 777 779 775 770 768 766 766 767 766 764 763 761 761 762 762 760 761 760 759 759 759 758 759 759 758 757 756 755 753 752 751 750 749 746 743 740 739 738 736 735 733 732 731 730 730 729 729 729 728 726 728 731 731 733 735 736 736 738 740 743 746 750 753 756 759 762 764 766 768 769 770 770 770 770 770 770 770 769 768 767 766
774 776 779 777 775 775 773 770 767 766 765 764 764 764 764 764 763 763 764 764 763 762 761 760 759 758 757 758 757 756 756 755 752 752 751 750 749 748 745 741 739 738 737 735 733 732 731 730 730 730 728 726 728 730 729 729 731 732 733 735 736 736 738 741 743 746 750 753 757 760 762 764 765 767 768 768 769 769 769 769 769 768 768 766 765 765
778 779 780 779 780 780 776 769 766 767 767 765 764 765 765 765 764 764 765 765 763 763 762 761 760 758 757 757 757 756 755 752 751 751 750 749 749 747 743 740 738 736 735 733 731 731 731 730 731 730 725 722 725 728 728 729 731 732 733 734 734 736 739 741 744 747 751 755 758 760 762 763 764 766 766 766 767 767 768 768 767 767 766 765 764 763
783 783 783 782 780 781 777 770 766 768 768 766 767 767 766 765 764 762 762 762 761 761 761 761 760 760 758 756 755 754 752 750 750 750 749 749 748 746 742 739 737 735 733 731 730 730 730 730 731 729 724 722 725 727 726 728 730 731 731 733 734 736 739 742 745 749 753 755 758 759 761 762 763 764 765 765 766 766 766 766 766 765 764 763 762 761
784 785 784 782 780 779 775 770 768 769 767 765 766 766 765 764 762 760 760 760 759 760 760 759 759 758 756 754 753 751 750 749 749 748 749 748 747 744 741 738 736 734 732 731 730 729 728 727 727 726 723 723 725 725 725 728 730 730 730 732 734 736 740 744 747 750 753 755 757 759 761 762 763 764 764 764 764 765 764 764 764 763 762 761 760 759
785 785 781 781 783 782 776 771 770 772 769 766 764 764 762 761 760 758 758 758 758 758 758 756 755 755 753 751 750 748 748 748 747 747 748 747 744 742 739 737 735 733 731 731 730 728 724 723 723 723 723 724 725 725 726 729 730 730 731 734 736 738 741 744 748 751 753 755 757 759 760 761 762 763 763 763 763 763 762 762 762 762 761 759 758 757
782 780 777 778 780 777 771 768 768 768 767 763 761 761 760 759 758 756 756 756 756 755 754 753 753 753 751 748 747 747 746 746 746 746 747 745 742 740 737 736 734 733 732 731 729 726 723 721 721 722 724 725 724 724 726 729 730 732 734 736 738 739 742 745 749 752 754 756 757 758 759 760 761 762 762 762 762 761 761 761 761 760 759 758 757 755
Wind_Speed
4 3 3 4 6 6 4 3 3 2 2 3 3 3 5 5 5 6 4 2 4 6 5 6 6 7 6 4 5 5 4 6 9 8 6 7 8 9 10 9 11 12 10 16 27 32 34 33 35 37 35 33 30 29 28 26 23 21 19 18 16 14 13 14 12 11 11 12 12 10 11 11 9 10 8 5 4 4 3 2 3 5 4 3 3 3
3 5 5 8 9 7 5 5 4 4 5 4 3 3 5 5 4 4 2 3 5 4 3 2 1 5 5 5 4 2 4 5 7 9 7 7 8 8 10 10 10 9 8 13 18 25 31 31 34 37 35 35 33 32 32 29 26 23 21 20 17 15 14 11 10 12 13 13 12 11 11 11 10 10 7 5 5 5 4 4 4 4 3 3 4 3
2 4 8 9 5 3 2 4 7 5 4 4 3 3 3 4 5 4 4 6 7 4 2 5 4 5 6 6 7 4 4 6 7 9 9 9 8 8 9 9 9 8 8 12 13 18 27 30 32 34 33 36 35 34 33 31 29 26 24 21 17 16 14 10 12 15 15 14 13 12 10 9 9 9 7 7 7 6 6 6 5 3 3 2 3 3
3 5 10 9 4 2 2 3 6 5 3 2 1 2 1 4 4 4 4 4 4 2 1 4 5 5 6 6 7 8 7 6 8 10 10 9 9 9 9 8 9 9 8 13 14 15 22 28 29 30 31 34 34 33 33 31 30 29 27 23 20 18 15 13 15 16 15 13 12 11 10 9 8 9 9 9 8 6 6 7 5 3 4 4 4 5
6 6 6 5 5 4 1 2 4 4 3 3 2 1 3 4 5 4 2 1 3 2 2 2 5 5 5 6 7 8 8 6 8 11 9 7 7 7 8 8 8 9 8 12 15 13 16 22 26 29 31 31 32 32 33 33 32 31 28 25 22 20 17 16 16 15 14 14 12 11 11 10 9 10 11 10 8 6 7 7 5 3 2 2 1 4
9 7 7 7 5 4 2 2 1 4 1 4 3 5 6 5 8 7 2 2 4 5 3 1 2 5 5 6 8 7 7 7 7 12 12 8 7 6 6 7 7 7 7 10 14 14 15 20 24 26 28 29 30 33 35 34 32 32 29 26 25 23 20 19 17 16 16 15 14 13 14 14 12 12 12 10 8 8 8 7 5 3 1 2 3 1
4 5 7 7 5 5 4 2 2 5 3 2 4 6 6 6 9 10 5 2 2 2 4 3 4 5 6 5 8 7 7 9 8 11 12 8 7 8 7 7 7 7 7 7 9 12 15 18 21 23 27 30 31 33 35 34 31 30 28 27 26 24 23 21 19 18 17 15 16 15 14 15 14 14 13 11 10 9 7 7 7 6 3 2 3 3
1 3 4 4 3 2 4 4 4 5 4 3 4 5 5 4 6 10 7 2 3 2 4 2 5 3 5 6 8 6 6 8 8 9 11 9 9 10 9 8 9 9 9 7 8 13 16 19 22 25 29 32 34 34 34 33 32 30 28 26 27 25 24 23 22 20 18 16 17 15 14 14 14 15 13 11 10 9 7 6 7 6 5 4 3 1
2 3 3 4 2 3 3 4 5 5 5 5 5 5 4 1 2 3 1 2 0 2 5 5 4 2 4 6 8 6 5 7 9 11 11 11 10 11 11 11 11 11 10 9 9 13 17 21 26 30 32 33 34 35 35 34 33 31 29 27 27 27 26 25 24 22 18 17 17 16 15 13 12 14 13 9 9 9 8 7 7 6 6 6 6 5
3 4 7 6 4 4 3 4 5 5 5 6 4 1 2 3 3 3 2 2 3 1 5 6 4 3 5 5 6 7 5 7 10 10 10 11 11 10 10 10 11 11 10 9 10 13 18 25 31 33 33 32 33 35 36 35 33 32 31 29 29 29 27 26 25 23 20 19 18 18 16 14 13 13 12 9 10 10 9 8 7 8 7 6 5 5
5 1 4 4 2 3 3 5 6 6 7 6 4 2 4 4 4 3 1 2 3 3 6 7 5 4 4 5 5 5 5 6 6 7 8 11 10 9 8 7 9 10 9 8 8 11 18 26 30 30 29 29 31 33 35 34 33 32 32 31 31 30 28 27 25 23 22 21 21 20 18 17 17 16 13 13 14 13 11 9 8 7 7 6 6 5
5 3 1 2 3 2 3 5 5 5 3 5 4 3 3 4 4 3 3 2 1 5 7 8 7 5 4 5 6 5 6 6 1 5 7 9 9 9 8 7 8 9 9 9 8 9 13 18 21 24 26 27 29 30 32 34 33 32 33 32 31 30 28 27 26 25 23 22 22 21 20 18 19 18 16 17 19 17 13 12 11 9 8 8 8 6
5 5 5 4 6 6 3 3 5 6 2 3 4 4 3 2 3 2 2 1 4 6 6 5 5 4 5 6 7 7 9 8 2 3 6 7 6 7 8 8 7 8 9 10 9 9 10 12 15 21 24 26 29 30 32 35 34 33 32 33 31 30 29 29 27 26 25 24 23 22 21 20 19 19 19 19 18 17 15 15 14 12 11 10 10 8
3 6 6 3 4 7 6 3 2 4 2 4 4 4 3 2 1 2 3 3 3 3 4 4 2 3 4 5 6 7 8 7 4 4 6 7 8 8 8 8 6 8 10 9 9 10 10 11 16 23 27 29 30 32 34 35 36 34 32 33 33 30 30 30 28 27 27 25 24 23 22 22 20 20 20 19 17 17 17 15 14 14 13 11 10 9
1 5 5 3 1 6 7 6 6 4 4 4 5 5 5 4 3 4 3 3 3 3 4 4 2 2 3 5 7 7 7 6 5 4 4 6 6 7 7 7 7 8 8 9 10 11 11 14 19 24 28 31 32 35 35 35 36 35 33 34 34 31 30 31 29 28 28 27 26 24 23 22 22 21 20 18 17 17 17 14 14 14 14 12 10 10
1 4 4 4 4 8 9 8 7 4 3 3 2 4 5 5 5 4 3 4 2 1 3 1 2 4 4 7 11 9 8 8 8 5 0 3 4 4 6 6 6 6 5 7 10 12 12 16 22 25 27 30 32 34 35 35 37 36 34 34 35 33 32 32 31 30 29 28 26 25 23 23 22 21 19 18 17 16 15 14 14 14 13 12 11 11
0 5 6 5 5 5 7 7 8 5 2 3 3 3 5 6 6 3 2 0 3 1 3 2 3 6 4 6 9 7 7 8 9 8 4 2 3 1 5 6 6 4 3 2 5 9 11 14 20 24 25 27 29 31 33 35 37 37 36 35 34 34 33 33 32 31 29 28 26 26 25 23 23 21 20 19 18 16 15 15 15 13 13 12 12 11
1 4 7 8 8 9 7 3 3 5 5 2 3 5 5 2 2 2 1 1 1 2 3 2 4 5 3 4 6 6 7 9 8 7 6 4 4 2 3 4 6 6 5 4 4 7 10 12 16 21 24 28 31 32 34 35 35 36 35 35 34 33 33 33 33 32 30 29 28 27 26 24 23 22 21 19 18 17 16 16 16 15 14 12 11 10
3 1 5 6 8 11 8 5 3 3 4 5 4 4 2 0 1 1 1 1 2 2 3 3 5 4 3 4 6 6 6 7 8 6 6 6 8 3 6 3 2 2 2 3 4 7 10 10 14 20 22 26 30 31 32 34 34 34 33 34 34 33 34 34 33 32 31 30 29 28 27 25 24 22 21 19 18 18 18 18 17 16 13 11 10 10
2 1 4 4 7 9 8 4 3 5 5 3 3 4 1 3 3 2 1 2 3 3 4 4 3 3 4 4 3 5 5 6 7 7 7 9 10 7 5 7 7 7 6 5 2 5 10 12 16 21 23 26 30 31 32 33 33 33 32 32 32 31 32 34 33 33 32 31 30 29 27 26 25 23 22 21 20 19 19 19 17 14 12 11 11 11
3 2 3 4 7 7 4 3 3 4 5 4 5 5 3 1 1 1 0 1 2 1 2 2 3 5 5 2 3 4 5 4 5 6 7 8 9 9 8 8 7 8 8 8 8 2 7 12 17 22 26 29 31 31 32 33 33 33 32 32 32 31 32 33 34 33 33 32 31 30 28 27 26 25 23 23 22 20 19 18 16 13 12 12 12 12
2 1 1 3 4 3 5 7 9 10 8 5 4 4 4 2 1 1 3 1 3 2 3 2 4 7 5 2 4 5 4 4 6 7 7 7 9 9 7 7 7 7 7 7 8 8 3 6 14 19 21 23 25 27 31 32 32 32 33 34 34 33 34 35 36 36 35 33 32 30 29 28 26 25 24 24 23 21 19 17 15 13 12 12 13 12
1 2 1 4 3 5 8 10 12 15 14 9 5 4 4 2 3 4 3 2 1 2 3 3 2 7 4 3 1 4 4 5 7 8 9 8 7 8 8 8 8 8 7 7 6 7 8 3 10 18 18 20 24 26 30 31 32 34 36 36 36 35 36 37 37 36 35 33 33 31 29 28 26 25 24 23 22 21 19 17 14 13 13 13 12 12
1 2 1 3 3 4 7 8 10 11 10 7 4 3 3 1 3 5 5 3 3 3 3 3 2 7 4 2 3 5 6 6 7 9 10 8 7 8 8 8 8 9 8 8 7 5 7 8 2 13 15 16 19 24 29 32 33 35 37 36 36 36 36 37 36 35 34 33 32 31 29 28 26 25 24 23 22 20 18 16 14 13 12 12 12 12
1 0 1 2 4 5 5 4 5 5 4 2 3 5 5 3 2 1 1 2 1 4 5 4 3 7 5 3 5 6 7 7 7 8 9 8 8 8 8 8 8 8 7 8 9 8 7 8 3 4 9 13 16 20 25 29 31 33 35 35 35 34 34 36 36 35 35 34 32 30 29 28 27 26 25 23 21 19 17 15 13 13 13 12 12 12
2 2 2 1 4 5 3 2 1 4 4 3 4 6 8 7 5 2 1 1 1 4 3 4 4 7 6 5 5 5 7 8 8 9 8 7 7 8 9 9 9 7 8 8 9 9 8 8 7 5 5 9 16 18 19 23 26 28 31 32 32 33 34 35 37 36 35 33 32 31 29 28 27 26 25 23 21 19 16 14 14 14 13 13 13 13
2 2 3 5 6 6 5 5 4 6 6 7 9 10 9 8 5 2 2 1 3 3 3 4 5 6 10 8 4 3 6 7 8 8 8 7 8 9 10 12 12 10 10 8 7 8 8 9 10 11 11 8 14 21 21 25 27 27 29 30 31 34 34 35 37 36 34 33 32 31 30 29 28 26 24 23 20 18 16 15 15 14 14 14 13 14
3 2 5 7 9 9 8 9 8 7 8 10 11 13 12 8 4 4 2 5 4 2 5 6 3 3 9 11 7 2 4 5 5 5 5 5 6 8 9 12 14 13 11 9 7 7 7 9 10 11 15 9 11 20 20 22 27 28 31 33 34 34 33 35 37 35 33 33 31 30 30 29 27 25 23 21 20 18 17 16 15 15 15 14 14 15
3 3 6 7 8 10 8 8 8 8 9 10 11 13 12 7 4 3 6 8 5 3 7 8 5 5 9 12 9 3 2 2 4 4 5 5 6 7 8 9 10 10 10 8 8 8 7 8 8 9 14 8 10 18 18 16 18 19 22 26 30 33 33 34 35 35 33 32 31 31 30 28 26 24 22 21 19 18 17 16 16 15 15 15 15 16
1 3 4 4 7 8 7 7 9 8 8 10 13 13 9 6 6 7 8 7 5 6 8 8 7 8 8 7 7 5 1 2 3 4 6 6 5 4 5 6 7 7 8 8 8 9 8 7 6 6 11 10 1 12 17 17 15 14 16 19 21 26 34 37 36 34 33 32 30 30 29 27 26 24 22 21 19 18 17 16 16 16 16 16 16 15
1 1 3 2 5 6 4 6 9 8 8 12 14 11 7 7 9 9 8 7 6 7 7 6 8 9 6 2 5 7 5 2 2 5 5 4 4 4 5 6 7 8 9 10 9 9 10 10 8 6 8 10 6 4 11 15 15 15 15 16 15 15 22 32 35 32 31 31 30 30 28 27 25 24 22 21 19 18 17 16 16 17 17 16 15 13
2 2 4 3 5 4 2 5 9 7 8 13 13 8 5 7 8 6 6 6 5 6 7 7 7 9 8 5 6 7 6 5 4 4 4 4 5 6 7 7 8 8 9 11 11 11 11 12 12 9 6 7 6 5 12 16 17 15 14 17 20 15 14 21 27 28 29 30 29 29 28 27 25 23 22 20 18 17 17 17 17 16 16 14 11 11
2 3 3 2 5 3 1 3 6 5 7 10 8 5 5 7 7 6 6 6 6 6 5 6 7 7 7 6 5 6 7 6 4 3 3 4 5 6 6 7 8 9 9 9 9 10 10 10 13 13 10 10 10 9 13 20 22 20 17 20 24 22 17 18 21 23 26 28 29 28 27 25 24 22 20 18 17 17 17 17 16 15 13 11 11 12
3 4 3 1 4 3 2 3 5 6 6 6 3 2 3 5 5 6 7 6 5 3 2 3 4 3 5 5 5 5 5 5 4 3 2 3 4 5 6 7 7 7 7 6 7 9 9 10 15 19 18 16 15 16 16 21 27 25 23 23 24 25 25 22 20 20 22 26 28 26 24 22 21 20 18 17 16 17 16 15 14 12 11 11 12 12
5 5 4 2 3 3 2 5 2 8 7 2 2 3 5 5 2 3 7 4 2 4 5 6 6 5 5 5 5 4 5 5 6 5 4 4 5 4 5 6 6 6 7 7 8 9 11 13 17 21 24 24 21 19 18 22 28 28 29 30 28 28 29 28 25 22 21 23 25 24 23 21 19 17 16 15 15 15 14 13 12 10 11 11 10 8
7 5 4 3 3 3 1 3 4 9 8 5 4 4 5 5 3 4 6 5 4 5 5 5 5 6 6 6 6 6 7 8 7 5 4 5 4 3 5 5 6 7 7 7 8 10 14 18 21 24 26 28 25 21 19 23 31 33 34 34 33 31 30 29 27 24 22 24 25 24 22 19 17 15 14 13 13 13 12 11 11 10 8 7 5 5
9 6 4 4 4 4 4 4 4 7 10 7 3 1 1 1 2 4 1 5 5 5 4 4 5 7 7 6 7 7 8 8 7 6 4 4 6 8 7 7 8 8 8 10 13 17 21 23 25 27 29 27 24 21 21 24 32 35 35 35 34 33 32 30 28 26 24 24 25 24 21 17 15 13 12 12 12 11 9 8 7 5 3 4 5 6
13 10 7 5 5 5 4 4 3 5 8 4 2 1 2 5 7 7 3 3 4 5 6 5 4 5 5 5 6 7 7 7 7 7 5 6 9 11 11 11 12 12 12 14 18 21 23 24 26 29 31 29 27 25 22 20 24 26 28 31 33 34 33 32 30 29 28 26 24 22 19 16 13 11 10 9 8 6 4 3 2 2 4 6 7 8
13 12 8 6 5 4 5 5 4 5 6 3 4 3 2 5 6 6 4 3 4 3 3 3 3 4 5 5 5 5 5 5 7 7 6 7 10 10 10 11 11 12 13 16 18 20 21 24 27 28 28 26 26 29 26 19 17 16 19 25 30 33 32 30 30 31 30 27 23 20 18 16 13 10 8 5 2 2 1 2 3 4 6 7 8 9
4 5 6 7 7 5 4 4 3 3 2 1 4 3 2 3 5 7 3 5 5 4 3 1 1 4 5 4 4 3 2 4 6 8 8 9 11 11 11 10 8 9 14 17 20 22 22 23 23 23 23 18 12 17 23 22 19 17 20 24 27 29 29 29 30 30 29 26 24 21 17 14 12 9 6 4 2 2 4 6 6 7 8 10 9 9
4 1 4 6 6 6 5 4 3 1 0 2 2 1 2 2 5 3 4 6 4 6 5 1 1 4 4 4 3 2 4 7 7 9 10 10 11 11 12 12 10 11 15 18 22 24 21 19 17 17 21 15 6 3 7 15 18 15 16 20 22 24 27 30 31 31 30 27 22 19 15 12 11 9 6 3 3 6 7 8 9 10 11 11 9 9
4 4 1 1 3 4 4 3 3 1 1 2 2 2 1 2 1 3 5 3 1 3 4 3 3 3 3 3 4 4 6 7 7 9 10 9 10 10 11 12 12 12 15 19 22 21 15 13 15 16 18 14 5 7 5 6 16 19 18 18 20 25 32 35 33 30 27 23 18 16 14 12 10 6 3 4 6 7 7 8 9 11 11 9 8 10
3 2 3 3 2 1 0 1 2 1 2 4 3 2 2 1 3 4 3 2 0 1 1 2 2 2 3 4 5 6 7 7 8 9 9 9 9 9 11 11 10 11 15 16 17 16 10 10 13 15 16 14 8 4 6 7 13 21 23 21 24 30 35 34 31 27 23 21 18 16 12 8 5 3 5 5 4 5 6 8 10 10 9 7 8 9
3 2 2 2 2 1 2 2 1 1 2 4 3 1 3 5 5 4 2 2 3 2 2 3 3 4 5 5 6 7 7 8 8 8 8 9 8 8 11 12 11 11 13 13 13 13 11 11 12 13 14 14 11 4 3 4 10 20 24 25 28 32 33 31 29 26 23 19 15 12 8 6 5 5 5 3 1 4 7 10 9 9 7 7 8 10
4 4 0 2 0 0 2 4 4 4 4 1 2 4 5 5 5 3 3 3 4 3 3 3 4 6 5 5 6 7 6 7 7 7 8 8 8 10 12 12 11 11 11 12 12 12 11 13 14 16 17 16 11 5 3 7 17 24 24 27 31 32 30 29 26 22 19 16 13 10 10 10 10 7 5 1 2 4 7 8 6 7 6 8 9 8
5 6 1 2 3 4 3 3 4 6 6 6 6 6 5 5 3 3 3 3 4 4 3 3 5 6 5 5 6 6 7 8 7 7 7 6 8 11 12 11 10 11 11 12 13 14 15 17 17 17 20 21 15 10 12 20 28 29 26 29 32 30 28 27 24 20 17 15 13 11 11 11 9 6 4 2 1 2 4 3 2 3 6 7 6 6
5 6 5 4 5 4 4 5 5 6 7 8 7 5 6 6 5 3 3 4 5 5 5 5 6 7 6 5 6 7 8 8 7 6 6 6 8 11 10 9 8 10 12 13 15 17 17 15 15 15 18 22 17 12 24 29 30 30 31 31 29 27 26 25 23 20 17 16 15 11 8 8 7 5 5 4 2 3 4 4 4 6 6 6 5 6
4 5 5 5 5 4 6 8 8 7 7 6 3 3 4 5 5 4 4 5 5 5 5 6 7 7 6 6 8 9 8 7 5 5 5 5 7 9 9 8 8 10 13 13 16 19 17 14 14 15 21 24 14 16 29 30 28 31 32 29 26 26 25 22 21 19 17 16 15 10 6 7 7 6 6 6 7 6 6 7 7 7 5 5 6 5
4 4 4 5 6 6 8 8 7 8 9 7 4 4 6 6 6 6 6 5 4 4 5 6 8 8 9 9 8 7 6 5 4 4 5 6 8 8 8 10 11 12 11 12 17 21 19 18 15 14 20 19 9 25 30 26 28 31 30 28 27 26 23 20 19 18 17 17 14 10 5 4 5 7 8 9 8 7 7 8 6 5 5 6 7 5
4 6 5 4 4 5 5 5 4 5 8 7 5 6 7 7 7 7 6 5 5 5 4 5 9 11 11 9 7 5 4 4 3 3 5 7 7 8 10 11 12 11 11 14 19 20 21 24 15 7 9 10 12 30 29 23 26 29 28 29 28 25 23 21 18 17 19 18 13 9 6 4 5 9 11 9 8 8 7 4 3 3 5 6 7 6
5 6 5 4 5 6 7 7 5 5 6 7 6 6 7 7 7 7 6 6 8 7 5 4 8 10 10 8 6 2 1 3 3 3 6 8 8 10 12 11 10 10 12 15 19 19 22 22 4 13 8 10 15 33 30 24 27 28 27 27 24 21 21 18 14 14 17 15 12 8 5 4 7 13 11 7 7 8 6 2 1 3 5 7 9 9
Wind_Direction
161 182 231 220 235 226 205 200 211 303 50 66 22 7 329 331 329 336 31 97 128 140 198 185 181 233 254 243 229 240 223 172 178 193 192 173 165 165 167 166 166 176 185 173 166 164 164 161 159 161 163 164 165 164 163 165 170 172 171 173 172 161 155 158 159 166 158 135 129 128 120 118 117 129 132 123 136 135 144 183 144 117 106 93 91 102
150 181 229 229 227 207 160 125 96 32 12 31 55 26 342 328 306 316 31 26 41 95 211 218 180 251 269 283 283 238 205 209 191 192 204 187 177 173 170 171 171 176 176 165 163 164 163 159 158 162 163 164 166 166 167 168 172 176 179 180 179 168 164 171 169 167 163 146 142 139 128 127 121 128 134 118 136 132 92 104 137 143 145 140 129 117
208 220 244 239 219 190 170 101 87 61 19 7 39 53 342 302 305 329 10 21 31 50 317 356 2 291 289 295 298 290 208 222 217 199 202 197 183 177 176 177 179 179 161 159 162 162 164 162 159 162 164 167 169 169 170 172 173 178 184 186 184 177 173 180 178 168 158 150 153 146 136 140 130 130 135 120 130 130 103 117 138 167 204 228 202 180
209 236 240 229 169 149 261 73 76 53 23 348 20 71 286 289 309 326 345 21 64 95 278 343 347 297 296 304 291 276 243 225 223 213 211 201 185 180 179 173 178 184 164 160 167 164 165 166 163 164 167 168 169 170 172 175 176 180 184 187 188 185 181 183 183 178 168 160 161 153 144 144 132 131 137 128 128 126 129 155 179 220 244 268 251 220
222 222 195 173 139 138 273 2 60 57 8 317 305 234 236 271 289 282 281 3 50 23 268 319 348 313 281 278 272 267 254 239 219 212 217 213 195 180 169 163 170 179 166 160 170 170 164 169 170 168 168 167 167 171 175 178 179 181 184 187 188 188 185 183 184 186 181 170 165 158 151 149 142 145 152 143 136 135 148 169 190 233 270 329 289 217
232 213 145 138 154 152 176 303 63 114 28 312 288 245 233 249 278 277 265 38 27 347 286 178 351 299 274 255 257 264 257 248 213 198 208 214 204 187 176 177 172 175 180 169 173 176 167 168 171 169 168 167 168 173 178 180 181 181 183 187 187 188 188 184 185 189 185 174 167 161 156 160 161 160 164 161 152 156 166 171 174 193 209 62 47 69
225 185 142 143 154 154 167 225 202 140 127 291 258 240 236 240 263 267 263 67 88 267 267 172 171 269 297 279 260 254 246 241 211 188 196 203 204 200 198 198 189 185 190 169 157 165 167 164 165 169 171 171 173 177 181 181 182 180 182 187 188 189 190 188 187 188 186 178 171 168 166 170 172 166 165 168 166 164 164 158 159 168 174 124 60 35
173 135 100 105 108 159 179 206 208 162 157 248 254 249 251 240 251 257 245 162 172 249 304 224 175 231 287 278 268 253 238 244 227 201 194 193 200 203 204 202 201 199 189 170 147 154 165 166 167 172 175 176 178 180 181 182 183 183 184 189 191 190 190 190 190 191 189 183 175 177 181 181 182 178 171 167 165 167 166 156 151 153 158 161 178 245
179 145 133 134 176 229 198 218 215 175 184 225 231 242 262 299 335 297 245 130 197 313 312 274 204 223 272 272 285 279 250 243 231 218 205 197 197 197 202 206 206 202 190 180 159 153 164 170 172 175 177 179 180 180 182 183 184 185 187 191 192 191 192 192 195 196 192 186 182 185 188 184 183 181 177 172 168 173 180 173 160 162 172 171 178 199
208 174 167 163 187 209 217 247 232 200 210 212 199 237 360 9 343 359 48 35 17 339 268 261 212 219 275 274 283 286 270 249 230 215 203 202 203 192 193 201 201 199 195 186 165 154 164 172 175 177 178 178 178 180 183 183 183 184 187 192 191 191 194 194 197 199 193 190 191 191 190 187 184 180 179 183 183 185 188 184 177 175 177 179 183 189
258 206 150 159 169 186 226 254 249 232 209 175 136 57 28 351 318 330 17 53 19 302 258 251 228 218 267 277 255 248 261 262 226 192 191 197 198 191 190 193 187 188 192 184 165 155 163 172 176 176 176 176 175 177 181 181 182 183 187 192 191 192 196 196 198 198 193 194 198 196 193 192 190 186 187 189 189 193 193 193 195 182 173 187 199 198
288 315 152 171 152 163 260 272 278 267 202 127 102 73 42 344 331 337 344 74 183 263 253 247 251 237 247 267 258 254 278 293 226 162 188 191 188 191 192 192 181 173 175 173 165 157 157 163 172 173 172 174 174 174 177 180 181 182 186 191 190 192 196 198 199 197 194 196 200 199 196 197 196 193 194 192 190 194 195 195 201 193 186 195 198 205
286 259 232 199 172 176 212 264 301 306 301 104 89 76 68 324 332 324 278 199 208 248 255 251 259 252 247 249 257 271 277 285 305 148 158 162 185 204 201 196 183 166 164 169 166 161 156 153 162 170 171 174 176 175 176 179 181 181 186 190 189 191 197 199 199 196 194 197 201 200 197 199 199 195 195 195 194 196 196 195 198 197 196 197 201 210
295 272 250 223 181 177 176 182 246 283 244 159 139 122 144 182 275 267 246 232 229 256 285 307 315 281 275 261 263 275 267 261 265 216 175 170 184 195 204 196 173 163 162 165 169 163 160 160 164 169 172 175 178 178 177 177 179 181 184 188 189 192 196 198 198 196 195 198 201 201 201 201 201 199 198 199 199 197 197 200 201 200 199 197 200 204
311 291 251 239 189 165 179 189 187 213 227 197 176 158 160 165 192 225 220 220 243 271 294 326 345 242 240 269 287 300 294 292 292 256 209 213 201 168 181 181 161 169 165 157 168 169 167 170 171 172 174 177 179 178 176 176 178 180 182 187 189 191 195 197 197 198 199 201 202 204 206 207 206 207 205 202 200 199 200 204 203 202 203 202 202 205
321 278 246 240 207 174 188 198 188 219 273 260 212 165 178 188 193 211 205 188 175 335 301 283 258 239 227 277 294 305 307 311 313 313 138 227 244 129 140 158 156 173 171 157 167 175 177 174 174 175 176 177 177 176 176 176 178 180 181 186 189 190 195 197 197 199 201 202 203 205 208 209 209 210 208 202 201 205 205 202 202 205 208 209 210 213
253 271 298 308 268 223 216 199 176 177 215 274 277 224 217 198 172 193 266 226 93 338 280 199 254 293 316 296 293 299 297 291 292 306 334 314 283 178 143 138 137 141 143 154 158 168 178 177 176 177 175 175 175 175 177 178 180 182 182 184 187 189 193 198 198 198 201 201 202 205 207 209 210 211 211 206 202 205 207 205 207 210 210 214 219 223
143 257 305 330 312 301 299 265 188 171 173 208 249 245 257 260 118 123 217 357 60 249 262 180 219 278 315 292 298 315 305 292 290 306 329 358 15 305 242 156 145 144 146 153 129 148 173 179 177 176 174 176 177 177 179 179 182 184 184 185 187 188 191 196 198 198 199 201 202 205 207 209 211 212 213 211 207 206 208 210 213 215 217 221 227 234
80 296 301 329 316 312 328 335 305 258 220 218 241 258 263 35 16 34 162 172 160 217 278 256 227 241 222 241 291 312 316 323 335 349 348 9 43 18 296 315 69 69 135 161 125 136 163 175 176 176 176 177 177 178 178 179 182 183 184 187 189 190 192 196 198 198 199 202 204 206 207 208 209 210 210 209 208 209 211 214 217 221 224 226 230 237
65 359 287 324 329 325 339 345 311 305 292 273 301 316 307 154 167 162 172 192 176 210 268 284 267 252 227 222 278 311 331 354 4 18 15 15 37 43 1 0 14 18 11 342 334 146 159 171 177 176 176 177 177 178 177 178 182 183 184 187 189 190 192 194 197 197 198 202 205 206 206 207 207 207 208 207 206 210 213 216 220 224 224 225 232 239
22 342 266 314 340 335 322 298 286 315 333 342 340 327 313 292 126 84 314 181 120 165 240 295 288 264 248 263 357 347 341 6 31 38 35 33 38 44 40 25 19 27 24 356 335 341 152 168 180 180 178 180 179 178 178 180 183 184 185 188 190 189 190 193 196 197 199 201 203 204 205 207 208 207 207 207 208 211 214 217 220 222 223 229 238 249
23 44 243 288 331 307 277 296 314 321 326 326 310 292 280 261 181 352 292 265 102 139 187 183 267 266 248 264 331 337 343 22 38 37 39 44 38 37 42 37 32 33 29 8 347 345 23 158 184 186 182 180 179 178 180 184 185 184 186 189 190 190 191 193 196 198 198 199 201 204 206 206 207 207 208 208 211 214 215 217 218 219 226 236 246 257
139 106 257 267 254 254 272 288 298 299 298 295 286 276 278 256 137 134 227 241 123 192 195 146 246 272 249 177 26 350 360 20 30 35 35 33 32 29 23 20 21 17 8 2 354 345 354 13 185 190 189 185 185 185 186 188 187 185 188 190 190 190 192 195 197 196 196 196 199 203 204 205 205 205 207 208 210 213 214 216 218 224 234 244 253 261
322 83 359 287 281 278 285 283 273 276 285 292 298 312 307 267 147 155 191 184 149 203 196 139 229 274 286 69 46 1 2 20 31 35 29 17 12 12 7 5 4 1 355 346 343 340 346 356 170 189 199 200 195 193 192 192 190 188 190 191 191 191 191 193 194 193 193 195 197 200 201 202 202 202 204 206 208 210 212 216 222 231 240 248 256 263
262 97 55 324 318 321 326 314 295 309 333 321 298 317 329 347 45 72 159 121 156 218 192 162 227 256 276 360 12 358 5 20 24 23 21 13 2 354 352 353 350 350 350 340 338 335 330 337 352 184 208 222 221 210 199 193 191 189 189 190 190 190 189 190 190 191 192 193 193 195 198 199 199 201 202 203 205 207 210 217 224 231 238 246 253 257
167 164 116 195 260 275 265 222 298 345 342 321 305 311 314 318 325 348 59 70 268 253 212 186 231 264 290 334 2 1 3 7 5 5 6 4 355 347 342 338 335 334 332 325 321 321 317 313 313 302 260 230 221 214 199 190 189 188 188 189 188 187 187 187 188 188 190 190 189 192 195 196 197 198 199 202 204 207 211 216 222 227 235 241 246 253
119 174 165 186 218 236 235 243 303 336 317 300 306 305 295 294 313 24 57 217 225 266 273 226 221 283 299 300 311 7 17 3 351 348 349 350 349 345 335 324 319 313 308 307 302 306 310 306 300 291 286 258 206 201 195 188 189 189 188 189 189 188 187 185 185 186 186 187 188 189 192 194 195 197 199 202 204 207 211 215 221 227 231 237 245 253
114 193 209 210 229 245 249 263 286 299 286 283 290 288 280 285 337 19 310 249 238 294 288 254 215 274 286 282 284 356 30 344 315 311 318 326 328 323 311 300 299 297 295 296 292 298 301 299 296 275 272 267 192 196 201 194 193 193 190 190 189 188 186 183 182 183 184 185 186 189 191 192 193 195 198 202 205 208 211 215 220 226 232 239 244 247
139 209 215 214 238 247 247 262 271 262 264 269 268 270 277 297 332 307 260 255 250 243 252 253 237 229 260 280 294 327 35 283 263 261 279 286 286 293 294 291 293 296 304 311 308 311 311 301 306 288 280 277 176 186 200 202 203 199 195 194 189 185 184 182 181 181 182 183 185 188 190 190 191 194 196 199 203 206 209 213 219 226 233 237 240 248
144 209 220 225 258 264 257 267 273 269 275 275 267 269 283 308 301 277 268 270 262 245 248 268 281 260 251 277 304 312 277 227 250 273 279 280 286 306 315 311 315 316 320 328 323 322 323 313 323 335 321 327 251 189 197 197 195 188 190 197 193 188 185 181 180 180 179 181 183 185 187 188 190 193 195 198 200 202 207 214 222 228 231 236 248 261
85 255 273 270 276 276 261 263 270 272 277 275 274 282 303 300 285 276 274 279 278 272 275 302 313 291 265 270 302 294 289 294 314 307 297 289 307 340 347 329 330 329 323 323 319 315 316 311 315 335 335 335 337 223 209 210 203 193 193 195 193 195 190 181 177 176 176 177 179 181 183 186 189 192 194 196 197 201 211 220 224 229 235 244 256 263
24 307 317 327 284 266 195 258 275 286 288 280 279 288 287 271 266 255 248 245 240 257 282 307 304 282 276 284 287 292 313 342 357 358 349 339 344 357 356 336 325 319 311 310 311 313 315 312 310 309 305 313 312 222 211 221 220 208 197 187 183 189 198 186 175 171 173 174 175 177 181 184 186 187 189 191 198 208 216 220 223 230 238 244 253 264
352 327 331 324 286 283 125 265 297 339 319 285 266 233 223 239 253 259 259 251 234 227 247 265 255 257 286 313 325 331 341 349 2 35 27 350 345 346 332 315 307 303 304 307 312 317 319 316 314 311 307 306 300 268 231 220 215 206 191 179 175 172 174 178 174 169 169 171 171 172 175 179 181 183 187 195 205 212 212 216 226 232 238 250 270 278
297 288 276 239 268 285 39 21 346 327 285 260 233 199 254 276 277 278 281 273 256 235 223 258 268 306 344 5 23 4 344 339 333 336 350 325 316 307 300 299 300 306 316 320 321 319 316 313 310 307 304 298 292 288 265 226 210 201 185 174 172 169 166 168 169 168 167 168 169 170 171 175 179 183 191 198 203 207 212 221 229 235 250 271 280 275
269 256 243 222 243 268 49 66 332 268 251 236 21 330 305 303 304 295 291 292 22 21 357 333 335 7 24 30 29 359 334 324 311 311 319 295 274 290 316 320 321 327 328 322 320 319 315 313 308 301 298 294 287 285 271 231 205 190 177 171 170 170 169 168 168 170 172 171 170 171 172 174 177 181 188 196 202 211 220 226 234 248 269 277 274 270
237 227 230 224 229 267 298 137 209 258 277 304 322 311 297 301 17 21 320 318 19 14 347 345 358 10 15 12 9 360 343 328 317 318 315 291 292 352 355 332 322 322 320 317 320 319 314 312 308 301 295 289 280 274 265 232 201 183 175 173 171 168 166 165 165 170 174 172 170 169 168 170 174 179 189 200 210 220 228 236 249 261 268 272 276 290
225 214 210 216 213 222 233 213 224 279 290 289 292 318 274 222 111 95 291 299 343 17 38 50 29 10 6 3 357 353 349 341 330 325 328 340 357 356 337 321 319 317 316 322 324 321 317 314 311 307 301 291 275 267 260 233 204 186 177 173 169 165 162 159 161 170 172 168 164 161 160 162 168 180 198 210 218 228 237 246 254 259 266 287 300 307
218 212 201 206 204 185 210 245 258 271 275 262 190 200 146 147 150 132 119 304 333 29 46 51 36 7 352 341 341 353 3 353 321 303 317 349 348 340 330 323 323 323 327 331 326 320 316 313 310 305 299 288 273 264 255 231 210 196 182 171 164 161 159 156 160 170 168 159 154 154 156 162 173 188 203 211 217 224 231 246 263 295 309 304 300 304
214 211 205 214 218 182 191 229 230 239 258 226 170 183 147 146 150 112 68 302 287 351 24 49 29 343 320 319 339 6 6 333 299 288 306 326 325 324 320 312 315 324 328 327 320 311 307 307 307 305 297 283 267 258 245 220 203 199 186 171 160 155 155 156 162 168 162 154 154 156 159 168 179 187 191 191 196 209 257 320 324 317 304 291 284 289
232 204 199 216 237 228 211 233 245 246 268 95 119 139 146 131 100 72 11 273 256 273 267 139 345 291 286 297 326 356 319 271 277 289 298 305 304 304 305 304 315 327 322 319 313 305 300 300 303 307 305 297 279 254 235 208 189 191 187 171 155 149 152 159 162 159 154 150 153 154 156 167 178 183 186 190 207 268 303 308 304 293 279 267 268 284
319 294 182 191 222 237 233 249 264 248 112 52 51 196 202 78 62 65 246 239 236 259 258 194 237 270 276 268 240 223 238 236 256 282 288 293 297 298 302 302 307 313 310 309 305 298 296 301 307 312 308 308 359 37 214 180 160 163 167 153 140 136 141 146 143 139 139 141 143 144 150 162 165 162 169 196 252 282 287 283 275 266 257 253 266 290
316 317 299 178 207 211 199 210 242 287 266 215 225 281 328 40 66 220 230 234 263 297 318 349 325 304 311 278 232 231 253 253 263 280 286 294 297 298 302 302 305 308 305 303 300 293 296 317 327 328 319 308 339 35 30 123 132 134 133 128 126 126 127 129 128 127 129 130 132 137 144 146 143 146 195 244 264 267 265 264 257 248 244 250 273 293
321 310 305 316 291 223 101 237 225 305 270 210 193 5 10 168 212 237 262 322 296 176 335 324 308 307 305 286 268 261 270 277 281 285 291 295 293 298 305 303 302 305 303 304 304 299 308 334 334 336 338 326 318 14 60 88 119 128 129 128 127 123 121 122 123 124 125 128 132 135 133 131 137 199 225 227 241 251 268 276 258 237 235 253 277 290
339 358 313 325 16 50 357 308 241 259 264 215 181 202 224 218 229 225 208 263 259 219 188 207 244 253 247 258 273 274 276 280 281 284 290 292 297 308 308 300 297 300 300 302 306 308 319 334 330 328 332 325 318 344 86 114 121 122 125 128 127 122 121 121 123 125 127 126 125 122 117 123 144 165 169 167 246 279 297 292 261 230 235 266 284 294
347 23 271 231 15 29 251 258 274 296 304 258 206 243 261 265 256 217 192 245 254 231 199 204 239 253 241 241 263 272 275 277 278 281 287 296 310 309 298 289 288 293 297 301 306 311 318 322 318 312 305 295 280 261 223 159 136 127 128 130 126 123 122 122 121 120 119 117 116 120 130 133 127 124 128 125 282 294 315 304 253 226 254 277 287 298
340 20 36 248 320 333 296 270 290 307 315 313 302 306 328 342 347 4 353 313 280 267 259 244 253 260 253 253 268 274 275 275 276 282 290 304 310 301 293 284 281 290 303 309 309 310 313 314 313 307 298 285 260 209 162 143 136 132 130 128 124 122 122 121 116 111 112 122 126 125 133 133 118 114 145 163 275 322 350 344 253 260 286 281 284 304
340 10 6 325 325 339 318 307 321 323 317 316 321 343 3 357 346 344 330 297 278 275 273 270 276 276 267 263 269 269 270 272 278 292 307 315 310 303 296 284 279 295 306 306 307 308 307 305 304 298 286 278 261 177 142 139 138 134 131 127 123 121 120 117 113 109 115 129 131 122 132 141 130 141 171 159 103 74 56 32 344 315 299 278 279 305
329 1 354 312 303 301 284 291 314 329 326 328 346 357 334 313 299 284 263 253 257 269 280 293 299 292 276 264 260 262 269 279 294 312 319 314 305 302 299 292 285 290 296 301 306 306 301 298 293 273 261 263 249 150 138 141 139 135 131 126 121 120 120 119 117 116 118 124 122 114 134 160 158 165 163 128 96 77 40 4 336 315 297 284 286 300
299 316 293 274 286 286 276 288 324 332 319 313 310 297 287 274 266 261 251 245 258 277 292 306 304 289 271 260 253 260 279 293 306 316 311 301 296 295 302 306 296 291 301 313 307 301 297 294 281 244 239 251 194 138 140 143 139 136 132 127 124 123 123 124 128 130 130 125 116 108 124 160 169 159 138 111 88 57 22 1 341 317 296 289 285 298
272 275 264 268 283 273 265 287 319 310 296 290 288 289 285 274 261 254 248 252 263 259 263 297 298 286 274 265 257 259 283 291 297 309 297 286 285 290 297 303 302 307 320 314 301 296 294 292 284 191 203 245 154 137 141 141 136 134 130 128 131 130 125 127 135 138 135 130 123 123 141 164 155 140 128 106 74 43 25 18 354 325 312 301 290 295
237 256 263 266 266 256 258 268 265 255 268 278 280 283 286 286 273 254 239 241 248 242 227 239 261 269 273 274 269 251 242 265 285 303 287 277 283 294 300 304 308 316 317 304 294 290 290 294 313 122 171 241 155 139 141 139 134 132 131 133 136 131 126 134 145 139 134 135 134 135 163 184 143 127 118 91 53 31 21 53 80 343 325 316 303 297